Flag for Austria Weather past 2 weeks in Klagenfurt, Carinthia, Austria

Now
25 °F

Passing clouds.


Feels Like: 19 °F
Forecast: 29 / 49 °F
Wind: 5 mph from Northwest

Location: Klagenfurt-Flughafen

Current Time: Mar 7, 2015 at 6:33:10 AM

Latest Report: Mar 7, 2015 at 5:50 AM


Visibility: N/A

Pressure: 30.51 "Hg

Humidity: 86%

Dew point: 21 °F

Location of KlagenfurtLocation

Historic Weather in Klagenfurt — Graph

°F

Klagenfurt temperature yesterday

Maximum temperature yesterday: 48 °F (at 1:50 PM)
Minimum temperature yesterday: 28 °F (at 5:50 AM)
Average temperature yesterday: 38 °F

Past Weeks' High & Low Weather Summary

 TemperatureHumidityPressure
High52 °F (Feb 28, 2:20 PM)100% (Feb 22, 10:20 AM)30.54 "Hg (Feb 22, 10:20 AM)
Low23 °F (Feb 20, 5:20 AM)24% (Mar 3, 3:50 PM)29.59 "Hg (Feb 23, 4:20 PM)
Average38 °F74%30.00 "Hg
* Reported Feb 20 5:20 AM — Mar 7 5:20 AM, Klagenfurt, Weather by CustomWeather, © 2015

Note: Actual official high and low records may vary slightly from our data, if they occured in-between our weather recording intervals... More about our weather records

Advertising

Klagenfurt weather history for previous 24 hours

 ConditionsComfort  
Time TempWeatherWind HumidityBarometerVisibility
5:20 AM
Sat, Mar 7
25 °FPassing clouds.3 mph86%30.51 "HgN/A
4:50 AM25 °FPassing clouds.6 mph86%30.51 "HgN/A
3:50 AM25 °FPassing clouds.3 mph80%30.51 "HgN/A
3:20 AM27 °FChilly.1 mph80%30.51 "HgN/A
2:50 AM27 °FChilly.2 mph80%30.51 "HgN/A
2:20 AM27 °FChilly.1 mph80%30.51 "HgN/A
1:50 AM28 °FChilly.1 mph74%30.54 "HgN/A
1:20 AM28 °FChilly.3 mph74%30.54 "HgN/A
12:50 AM28 °FPassing clouds.2 mph74%30.54 "HgN/A
12:20 AM28 °FPassing clouds.5 mph74%30.54 "HgN/A
11:50 PM
Fri, Mar 6
32 °FChilly.3 mph64%30.54 "HgN/A
11:20 PM32 °FPassing clouds.2 mph60%30.54 "HgN/A
10:50 PM34 °FPassing clouds.3 mph60%30.54 "HgN/A
10:20 PM36 °FPassing clouds.2 mph52%30.54 "HgN/A
9:50 PM36 °FPassing clouds.5 mph52%30.54 "HgN/A
9:20 PM34 °FPassing clouds.2 mph56%30.51 "HgN/A
8:50 PM36 °FPassing clouds.5 mph52%30.51 "HgN/A
8:20 PM37 °FPassing clouds.2 mph48%30.51 "HgN/A
7:50 PM37 °FPassing clouds.5 mph45%30.48 "HgN/A
7:20 PM41 °FPassing clouds.7 mph39%30.48 "HgN/A
6:50 PM41 °FPassing clouds.10 mph42%30.48 "HgN/A
6:20 PM43 °FPassing clouds.8 mph39%30.48 "HgN/A
5:50 PM43 °FPassing clouds.12 mph39%30.45 "HgN/A
5:20 PM45 °FPassing clouds.15 mph37%30.45 "HgN/A
4:50 PM45 °FPassing clouds.14 mph34%30.45 "HgN/A
4:20 PM46 °FPassing clouds.15 mph34%30.45 "HgN/A
3:50 PM46 °FPassing clouds.16 mph32%30.45 "HgN/A
3:20 PM48 °FPassing clouds.16 mph32%30.45 "HgN/A
2:50 PM46 °FScattered clouds.16 mph32%30.45 "HgN/A
2:20 PM48 °FScattered clouds.15 mph29%30.45 "HgN/A
1:50 PM48 °FScattered clouds.16 mph29%30.45 "HgN/A
1:20 PM46 °FScattered clouds.15 mph29%30.45 "HgN/A
12:50 PM46 °FScattered clouds.15 mph32%30.45 "HgN/A
12:20 PM46 °FScattered clouds.17 mph32%30.45 "HgN/A
11:50 AM46 °FScattered clouds.15 mph32%30.48 "HgN/A
11:20 AM46 °FPassing clouds.16 mph32%30.48 "HgN/A
10:50 AM43 °FPassing clouds.3 mph42%30.48 "HgN/A
10:20 AM41 °FPassing clouds.3 mph45%30.48 "HgN/A
9:50 AM41 °FPassing clouds.6 mph49%30.48 "HgN/A
9:20 AM39 °FPassing clouds.3 mph52%30.48 "HgN/A
8:50 AM37 °FPassing clouds.2 mph56%30.48 "HgN/A
8:20 AM36 °FPassing clouds.1 mph60%30.48 "HgN/A
7:50 AM34 °FPassing clouds.3 mph60%30.48 "HgN/A
7:20 AM28 °FPassing clouds.2 mph74%30.48 "HgN/A
6:50 AM28 °FPassing clouds.5 mph69%30.45 "HgN/A
6:20 AM28 °FPassing clouds.2 mph69%30.45 "HgN/A
Weather by CustomWeather, © 2015

See weather overviewHow to use our weather pages